Location: Unspecified
(43.3830°N, 0.0000°E)
Time: 03:13:40
(UTC+00:00)

Vanguard 2 - Pass Details

Date: 26 June 2019
Orbit: 553 x 2938 km, 32.9° (Epoch: 21 July)

Event Time Altitude Azimuth Distance (km) Brightness Sun altitude
Rises 11:09:37 0° 261° (W) 3,599 10.9 67.2°
Reaches altitude 10° 11:12:10 10° 250° (WSW) 2,911 10.6 67.4°
Maximum altitude 11:18:17 29° 193° (SSW) 2,391 10.8 68.0°
Drops below altitude 10° 11:27:24 10° 140° (SE) 4,433 11.9 68.7°
Sets 11:32:23 0° 131° (SE) 5,848 12.3 69.0°
